1487890800.62,28918,9.56,71922.8,-3.19,-20.39,-25.03,0,*5D
1487890801.84,28919,9.56,71954.5,-3.19,-20.73,-25.49,0,*5C
1487890803.07,28920,9.56,71986.5,-3.19,-20.83,-25.65,0,*57
1487890804.28,28921,9.56,71996.5,-3.19,-20.69,-25.23,0,*50
1487890805.55,28922,9.56,71996.0,-3.19,-20.83,-25.71,0,*50
1487890806.81,28923,9.56,72012.8,-3.21,-20.93,-25.75,0,*5F
1487890808.05,28924,9.56,72030.3,-3.19,-21.03,-25.87,0,*56
1487890809.31,28925,9.56,72030.8,-3.21,-21.03,-25.87,0,*5C
1487890810.54,28926,9.56,72036.0,-3.19,-21.03,-25.87,0,*54
1487890811.8,28927,9.56,72024.5,-3.21,-21.03,-25.91,0,*59
1487890813.03,28928,9.56,72046.3,-3.21,-20.93,-25.87,0,*59
1487890814.25,28929,9.56,72036.0,-3.19,-21.17,-26.03,0,*51
1487890815.49,28930,9.56,72046.5,-3.21,-21.17,-26.07,0,*56
1487890816.72,28931,9.56,72044.5,-3.21,-21.09,-26.03,0,*5C
1487890818.01,28932,9.56,72056.0,-3.21,-21.23,-26.17,0,*52
1487890819.27,28933,9.56,72050.0,-3.21,-21.27,-26.23,0,*50
1487890820.56,28934,9.56,72058.5,-3.21,-21.27,-26.33,0,*56
1487890821.82,28935,9.56,72052.3,-3.21,-21.23,-26.23,0,*52
1487890823.05,28936,9.56,72054.5,-3.23,-21.23,-26.23,0,*53
1487890824.34,28937,9.56,72054.8,-3.25,-21.27,-26.29,0,*5A
1487890825.56,28938,9.56,72036.3,-3.23,-20.09,-24.87,0,*58
1487890826.8,28939,9.56,72036.3,-3.23,-20.63,-25.71,0,*5D
1487890828.03,28940,9.56,72052.8,-3.23,-21.03,-26.07,0,*56
1487890829.29,28941,9.56,72070.5,-3.23,-21.27,-26.33,0,*56
1487890830.53,28942,9.56,72076.8,-3.21,-21.39,-26.39,0,*52
1487890831.78,28943,9.56,72078.0,-3.25,-21.43,-26.55,0,*50
1487890833.02,28944,9.56,72076.0,-3.23,-21.27,-26.39,0,*59
1487890834.28,28945,9.56,72060.3,-3.23,-21.23,-26.33,0,*56
1487890835.51,28946,9.56,72078.8,-3.23,-21.23,-26.45,0,*54
1487890836.74,28947,9.56,72066.0,-3.23,-21.39,-26.55,0,*5F
1487890838.0,28948,9.56,72060.5,-3.25,-21.09,-26.13,0,*57
1487890839.21,28949,9.56,72050.0,-3.23,-21.17,-26.39,0,*57
1487890840.41,28950,9.56,72082.3,-3.23,-21.43,-26.61,0,*53
1487890841.67,28951,9.56,72082.0,-3.25,-21.43,-26.77,0,*53
1487890842.95,28952,9.56,72082.8,-3.25,-21.57,-26.81,0,*5C
1487890844.18,28953,9.56,72104.0,-3.25,-21.47,-26.65,0,*56
1487890845.44,28954,9.56,72068.5,-3.25,-20.79,-26.07,0,*59
1487890846.7,28955,9.56,72070.0,-3.25,-20.99,-26.45,0,*50
1487890847.93,28956,9.56,72068.3,-3.23,-21.33,-26.61,0,*52
1487890849.15,28957,9.56,72084.5,-3.25,-21.09,-26.49,0,*56
1487890850.41,28958,9.56,72080.5,-3.25,-21.33,-26.49,0,*50
1487890851.66,28959,9.56,72078.3,-3.25,-20.93,-26.13,0,*55
1487890852.9,28960,9.56,72082.8,-3.25,-21.09,-26.39,0,*55
1487890854.1,28961,9.56,72076.8,-3.23,-21.39,-26.61,0,*5C
1487890855.39,28962,9.56,72054.8,-3.25,-21.27,-26.77,0,*51
1487890856.62,28963,9.56,71996.5,-3.23,-21.23,-26.23,0,*53
1487890857.85,28964,9.56,72042.3,-3.23,-20.49,-25.87,0,*54
1487890859.06,28965,9.56,72048.0,-3.23,-20.59,-25.87,0,*54
1487890860.26,28966,9.56,72046.5,-3.23,-20.63,-25.91,0,*59
1487890861.46,28967,9.56,72028.5,-3.23,-20.29,-25.61,0,*59
1487890862.74,28968,9.56,72046.0,-3.21,-20.15,-25.45,0,*5D
1487890864.0,28969,9.56,72074.0,-3.21,-20.49,-25.87,0,*5B
1487890865.21,28970,9.56,72062.8,-3.19,-20.25,-25.65,0,*5E
1487890866.5,28971,9.56,72062.5,-3.17,-20.53,-25.97,0,*5D
1487890867.76,28972,9.56,72068.3,-3.13,-20.39,-25.81,0,*51
1487890869.02,28973,9.56,72088.5,-3.17,-20.83,-26.03,0,*5C
1487890870.31,28974,9.56,72096.5,-3.17,-20.83,-26.29,0,*53
1487890871.57,28975,9.56,72096.0,-3.17,-21.23,-26.65,0,*51
1487890872.83,28976,9.56,72096.5,-3.13,-21.17,-26.77,0,*52
1487890874.08,28977,9.56,72090.5,-3.13,-21.57,-27.13,0,*54
1487890875.32,28978,9.56,72102.8,-3.13,-21.77,-27.29,0,*50
1487890876.56,28979,9.56,72112.5,-3.17,-21.77,-27.29,0,*55
1487890877.8,28980,9.56,72086.5,-3.17,-21.17,-26.65,0,*5C
1487890879.05,28981,9.56,72096.0,-3.17,-21.13,-26.55,0,*5A
1487890880.31,28982,9.56,72092.8,-3.13,-21.17,-26.77,0,*59
1487890881.59,28983,9.56,72092.0,-3.13,-21.33,-26.81,0,*57
1487890882.83,28984,9.56,72094.3,-3.17,-21.63,-27.29,0,*52
1487890884.09,28985,9.56,72092.5,-3.13,-21.33,-27.07,0,*5E
1487890885.37,28986,9.56,72086.8,-3.17,-21.83,-27.35,0,*53
1487890886.61,28987,9.56,72076.0,-3.13,-21.93,-27.51,0,*55
1487890887.86,28988,9.56,72082.5,-3.17,-21.83,-27.51,0,*5F
1487890889.1,28989,9.56,72086.0,-3.13,-22.03,-27.67,0,*54
1487890890.33,28990,9.56,72094.3,-3.17,-21.93,-27.71,0,*55
1487890891.57,28991,9.56,72086.0,-3.17,-21.93,-27.55,0,*52
1487890892.8,28992,9.56,72082.8,-3.17,-21.93,-27.67,0,*50
1487890894.04,28993,9.56,72082.3,-3.17,-21.93,-27.55,0,*50
1487890895.27,28994,9.56,72084.3,-3.17,-22.11,-27.71,0,*58
1487890896.52,28995,9.56,72082.3,-3.13,-21.77,-27.45,0,*59
1487890897.79,28996,9.56,72080.8,-3.17,-21.83,-27.67,0,*55
1487890899.07,28997,9.56,72078.3,-3.17,-21.83,-27.45,0,*54
1487890900.3,28998,9.56,72074.5,-3.17,-21.63,-27.29,0,*5F
1487890901.56,28999,9.56,72076.3,-3.13,-21.63,-27.35,0,*57
1487890902.82,29000,9.56,72072.0,-3.17,-21.47,-27.19,0,*53
1487890904.05,29001,9.56,72082.8,-3.13,-21.93,-27.67,0,*56
1487890905.28,29002,9.56,72088.0,-3.13,-22.03,-27.77,0,*5E
1487890906.54,29003,9.56,72086.0,-3.13,-21.87,-27.77,0,*50
1487890907.79,29004,9.56,72066.3,-3.17,-21.97,-27.71,0,*54
1487890909.08,29005,9.56,72074.0,-3.17,-22.17,-27.99,0,*58
1487890910.33,29006,9.56,72056.5,-3.13,-22.07,-27.83,0,*55
1487890911.57,29007,9.56,72056.8,-3.17,-22.41,-28.15,0,*52
1487890912.81,29008,9.56,72060.0,-3.17,-22.57,-28.37,0,*5A
1487890914.04,29009,9.56,72076.0,-3.17,-22.57,-28.37,0,*5B
1487890915.3,29010,9.56,72078.3,-3.17,-22.57,-28.47,0,*54
1487890916.56,29011,9.56,72080.8,-3.17,-22.57,-28.47,0,*55
1487890917.82,29012,9.56,72078.0,-3.17,-22.57,-28.47,0,*56
1487890919.11,29013,9.56,72074.3,-3.17,-22.31,-28.21,0,*57
1487890920.35,29014,9.56,72074.0,-3.19,-22.57,-28.47,0,*5E
1487890921.58,29015,9.56,72086.3,-3.19,-22.57,-28.47,0,*5F
1487890922.8,29016,9.56,72088.3,-3.19,-22.57,-28.53,0,*59
1487890924.01,29017,9.56,72098.8,-3.19,-22.57,-28.37,0,*5A
1487890925.24,29018,9.56,72108.3,-3.19,-22.63,-28.59,0,*5A
1487890926.51,29019,9.56,72072.8,-3.19,-22.17,-28.05,0,*51
1487890927.75,29020,9.56,72024.8,-3.19,-22.11,-28.05,0,*5D
1487890928.97,29021,9.56,72046.8,-3.19,-22.41,-28.47,0,*5F
1487890930.18,29022,9.56,72066.3,-3.19,-22.63,-28.53,0,*59
1487890931.44,29023,9.56,72072.3,-3.19,-22.47,-28.47,0,*5B
1487890932.67,29024,9.56,72088.5,-3.19,-22.73,-28.85,0,*55
1487890933.91,29025,9.56,72078.3,-3.19,-22.63,-28.59,0,*54
1487890935.14,29026,9.56,72088.5,-3.19,-22.93,-28.91,0,*5C
1487890936.38,29027,9.56,72090.8,-3.21,-23.09,-28.97,0,*52
1487890937.59,29028,9.56,72084.5,-3.19,-23.13,-28.97,0,*5D
1487890938.81,29029,9.56,72090.5,-3.19,-23.13,-29.13,0,*51
1487890940.05,29030,9.56,72094.0,-3.19,-22.93,-28.91,0,*5B
1487890941.29,29031,9.56,72106.0,-3.19,-23.09,-28.91,0,*58
1487890942.51,29032,9.56,72096.3,-3.23,-23.13,-29.13,0,*52
1487890943.75,29033,9.56,72128.3,-3.21,-22.93,-28.97,0,*55
1487890945.01,29034,9.56,72110.3,-3.21,-22.47,-28.37,0,*51
1487890946.28,29035,9.56,72074.0,-3.19,-22.17,-28.05,0,*5F
1487890947.48,29036,9.56,72072.0,-3.19,-22.41,-28.37,0,*5E
1487890948.72,29037,9.56,72076.0,-3.19,-22.57,-28.47,0,*5F
1487890949.96,29038,9.56,72088.8,-3.19,-22.57,-28.47,0,*50
1487890951.22,29039,9.56,72114.5,-3.21,-22.83,-28.91,0,*58
1487890952.44,29040,9.5,72104.5,-3.19,-22.87,-28.75,0,*53
1487890953.68,29041,9.56,72070.0,-3.19,-22.77,-28.69,0,*50
1487890954.94,29042,9.56,72056.3,-3.19,-22.47,-28.21,0,*5C
1487890956.16,29043,9.56,72062.3,-3.19,-22.93,-28.85,0,*5A
1487890957.4,29044,9.56,72080.5,-3.19,-22.77,-28.69,0,*55
1487890958.65,29045,9.5,72088.3,-3.19,-22.73,-28.59,0,*53
1487890959.89,29046,9.56,72086.0,-3.19,-22.47,-28.37,0,*5F
1487890961.13,29047,9.56,72076.8,-3.19,-23.09,-28.91,0,*59
1487890962.38,29048,9.56,72062.8,-3.19,-23.03,-28.75,0,*56
1487890963.65,29049,9.56,72056.8,-3.19,-23.19,-28.91,0,*56
1487890964.87,29050,9.56,72060.5,-3.19,-23.23,-29.07,0,*59
1487890966.14,29051,9.56,72060.3,-3.17,-23.43,-29.51,0,*53
1487890967.42,29052,9.56,72066.0,-3.13,-23.53,-29.51,0,*55
1487890968.65,29053,9.56,72066.8,-3.19,-23.69,-29.57,0,*51
1487890969.88,29054,9.56,72056.8,-3.19,-23.69,-29.57,0,*56
1487890971.09,29055,9.56,72062.8,-3.19,-23.59,-29.57,0,*54
1487890972.35,29056,9.56,72056.8,-3.19,-23.85,-29.73,0,*50
1487890973.56,29057,9.56,72052.0,-3.19,-24.05,-29.95,0,*56
1487890974.77,29058,9.56,72048.3,-3.19,-23.89,-29.95,0,*5A
1487890976.0,29059,9.56,72062.0,-3.19,-23.85,-29.79,0,*55
1487890977.24,29060,9.56,72046.0,-3.21,-23.75,-29.57,0,*57
1487890978.48,29061,9.56,72038.3,-3.21,-23.59,-29.45,0,*5B
1487890979.71,29062,9.56,72038.3,-3.21,-23.79,-29.79,0,*55
1487890980.97,29063,9.56,72040.3,-3.21,-24.11,-29.95,0,*5F
1487890982.22,29064,9.56,72038.8,-3.19,-24.05,-29.89,0,*5B
1487890983.51,29065,9.5,72038.5,-3.21,-24.21,-30.01,0,*5F
1487890984.77,29066,9.5,72044.8,-3.21,-24.25,-30.11,0,*59
1487890986.07,29067,9.56,72030.0,-3.21,-24.25,-30.01,0,*59
1487890987.31,29068,9.56,72042.0,-3.23,-24.25,-30.11,0,*55
1487890988.52,29069,9.56,72044.5,-3.23,-24.47,-30.33,0,*50
1487890989.77,29070,9.5,72042.0,-3.23,-24.47,-30.17,0,*5E
1487890991.01,29071,9.56,72038.0,-3.25,-24.47,-30.23,0,*5E
1487890992.25,29072,9.56,72026.5,-3.25,-24.47,-30.33,0,*5C
1487890993.51,29073,9.56,72030.8,-3.25,-24.77,-30.51,0,*5A
1487890994.73,29074,9.56,72044.5,-3.27,-24.51,-30.27,0,*5A
1487890995.96,29075,9.56,72034.5,-3.27,-24.41,-30.11,0,*5F
1487890997.26,29076,9.56,72050.3,-3.25,-24.25,-30.01,0,*5D
1487890998.49,29077,9.56,72048.0,-3.27,-24.05,-29.73,0,*51
1487890999.7,29078,9.5,72062.0,-3.27,-24.05,-29.67,0,*5B
1487891000.93,29079,9.5,72078.5,-3.27,-24.05,-29.73,0,*5F
1487891002.19,29080,9.56,72084.0,-3.25,-24.11,-29.61,0,*5D
1487891003.43,29081,9.56,72074.3,-3.23,-24.21,-29.83,0,*55
1487891004.7,29082,9.56,72060.8,-3.25,-24.47,-30.01,0,*52
1487891005.98,29083,9.56,72032.5,-3.25,-24.11,-29.51,0,*5D
1487891007.25,29084,9.56,72040.5,-3.25,-24.25,-29.67,0,*58
1487891008.51,29085,9.56,72018.5,-3.25,-24.15,-29.83,0,*50
1487891009.78,29086,9.5,72082.8,-3.25,-24.47,-30.01,0,*56
1487891011.05,29087,9.56,72094.0,-3.25,-24.31,-29.89,0,*5E
1487891012.33,29088,9.56,71988.0,-3.25,-23.65,-29.17,0,*50
1487891013.6,29089,9.56,71984.5,-3.25,-23.69,-29.17,0,*5D
1487891014.82,29090,9.56,71976.0,-3.23,-23.89,-29.29,0,*50
1487891016.06,29091,9.56,71988.8,-3.23,-24.25,-29.79,0,*55
1487891017.26,29092,9.56,72016.3,-3.23,-24.57,-30.11,0,*55
1487891018.52,29093,9.56,72046.5,-3.21,-24.57,-30.01,0,*57
1487891019.79,29094,9.5,72032.0,-3.21,-24.71,-30.11,0,*55
1487891021.03,29095,9.56,72048.3,-3.23,-24.61,-30.01,0,*56
1487891022.29,29096,9.56,72044.3,-3.21,-24.87,-30.27,0,*5B
1487891023.52,29097,9.56,72038.5,-3.23,-24.71,-30.11,0,*54
1487891024.73,29098,9.5,72044.8,-3.23,-24.93,-30.33,0,*57
1487891025.98,29099,9.56,72048.3,-3.25,-25.09,-30.51,0,*56
1487891027.24,29100,9.5,72052.3,-3.25,-25.13,-30.55,0,*58
1487891028.5,29101,9.56,72054.8,-3.25,-25.29,-30.67,0,*51
1487891029.71,29102,9.5,72038.0,-3.23,-25.09,-30.45,0,*56
1487891030.91,29103,9.5,72052.5,-3.23,-25.09,-30.45,0,*57
1487891032.12,29104,9.56,72058.5,-3.23,-25.09,-30.45,0,*50
1487891033.35,29105,9.5,72054.3,-3.25,-25.23,-30.33,0,*5E
1487891034.61,29106,9.56,72056.8,-3.25,-24.97,-30.17,0,*55
1487891035.8,29107,9.56,72060.8,-3.23,-24.93,-30.11,0,*50
1487891037.06,29108,9.5,72064.0,-3.25,-25.23,-30.39,0,*59
1487891038.3,29109,9.5,72052.3,-3.25,-24.93,-30.05,0,*5D
1487891039.54,29110,9.56,72056.3,-3.25,-25.13,-30.33,0,*59
1487891040.8,29111,9.5,72054.3,-3.25,-25.35,-30.51,0,*58
1487891042.07,29112,9.56,72066.3,-3.25,-25.45,-30.55,0,*58
1487891043.33,29113,9.56,72078.0,-3.25,-25.45,-30.67,0,*58
1487891044.58,29114,9.5,72066.0,-3.25,-25.35,-30.51,0,*5D
1487891045.86,29115,9.56,72076.8,-3.25,-25.45,-30.51,0,*5B
1487891047.14,29116,9.5,72080.0,-3.25,-25.45,-30.55,0,*5C
1487891048.4,29117,9.56,72080.5,-3.25,-25.49,-30.51,0,*55
1487891049.63,29118,9.5,72074.0,-3.27,-25.49,-30.55,0,*5C
1487891050.84,29119,9.56,72084.0,-3.27,-25.39,-30.45,0,*5B
1487891052.05,29120,9.56,72066.8,-3.27,-25.49,-30.45,0,*56
1487891053.3,29121,9.56,72060.5,-3.29,-25.29,-30.23,0,*5F
1487891054.51,29122,9.5,72062.5,-3.27,-25.39,-30.27,0,*57
1487891055.77,29123,9.56,72070.0,-3.27,-25.55,-30.61,0,*5E
1487891057.04,29124,9.56,72090.8,-3.27,-25.81,-30.77,0,*57
1487891058.3,29125,9.5,72086.3,-3.29,-25.97,-31.01,0,*5F
1487891059.58,29126,9.5,72092.3,-3.29,-25.97,-30.95,0,*50
1487891060.82,29127,9.5,72100.5,-3.27,-25.71,-30.45,0,*5A
1487891062.11,29128,9.56,72088.0,-3.29,-25.71,-30.55,0,*5A
1487891063.34,29129,9.56,72088.3,-3.29,-25.65,-30.45,0,*5F
1487891064.58,29130,9.5,72062.5,-3.29,-25.65,-30.45,0,*57
1487891065.83,29131,9.5,72044.3,-3.29,-25.35,-30.05,0,*57
1487891067.09,29132,9.5,72024.8,-3.29,-25.71,-30.45,0,*50
1487891068.38,29133,9.5,72040.3,-3.29,-25.97,-30.61,0,*5F
1487891069.67,29134,9.5,72040.3,-3.29,-25.71,-30.39,0,*5D
1487891070.94,29135,9.5,72052.0,-3.29,-26.03,-30.61,0,*57
1487891072.23,29136,9.5,72068.8,-3.29,-25.97,-30.73,0,*59
1487891073.47,29137,9.5,72050.8,-3.29,-25.87,-30.45,0,*5C
1487891074.72,29138,9.5,72050.8,-3.29,-25.87,-30.55,0,*52
1487891076.02,29139,9.5,72050.8,-3.29,-25.97,-30.61,0,*55
1487891077.29,29140,9.5,72044.5,-3.29,-26.03,-30.73,0,*56
1487891078.58,29141,9.5,72046.8,-3.29,-26.17,-30.73,0,*52
1487891079.88,29142,9.5,72046.3,-3.29,-26.17,-30.77,0,*55
1487891081.17,29143,9.5,72042.8,-3.33,-26.17,-30.61,0,*58
1487891082.41,29144,9.5,72034.8,-3.33,-26.23,-30.83,0,*54
1487891083.65,29145,9.5,72060.5,-3.33,-26.49,-31.01,0,*52
1487891084.9,29146,9.56,72048.8,-3.33,-26.49,-30.83,0,*5A
1487891086.13,29147,9.56,72044.8,-3.35,-26.49,-30.83,0,*5D
1487891087.4,29148,9.5,72046.8,-3.33,-26.39,-30.77,0,*58
1487891088.66,29149,9.5,72044.0,-3.35,-26.55,-30.89,0,*54
1487891089.89,29150,9.5,72046.3,-3.35,-26.49,-30.83,0,*5B
1487891091.14,29151,9.5,72058.0,-3.35,-26.49,-30.89,0,*50
1487891092.4,29152,9.5,72056.3,-3.35,-26.55,-30.89,0,*5E
1487891093.67,29153,9.5,72042.3,-3.35,-26.55,-30.89,0,*5F
1487891094.92,29154,9.56,72044.8,-3.35,-26.49,-30.89,0,*55
1487891096.16,29155,9.56,72034.3,-3.35,-26.39,-30.61,0,*55
1487891097.41,29156,9.5,72040.5,-3.35,-26.39,-30.77,0,*51
1487891098.66,29157,9.5,72044.8,-3.35,-26.49,-30.77,0,*57
1487891099.93,29158,9.5,72044.3,-3.35,-26.55,-30.89,0,*54
1487891101.2,29159,9.5,72048.8,-3.35,-26.55,-30.89,0,*55
1487891102.46,29160,9.5,72064.0,-3.37,-26.45,-30.55,0,*5D
1487891103.72,29161,9.5,72062.8,-3.37,-26.61,-30.73,0,*5E
1487891104.96,29162,9.5,72066.5,-3.39,-26.55,-30.83,0,*5B
1487891106.21,29163,9.5,72058.0,-3.37,-26.61,-30.83,0,*53
1487891107.5,29164,9.56,72060.0,-3.37,-26.81,-31.11,0,*50
1487891108.79,29165,9.5,72066.3,-3.37,-26.77,-30.95,0,*55
1487891110.06,29166,9.5,72072.0,-3.37,-26.81,-31.05,0,*57
1487891111.28,29167,9.5,72066.0,-3.39,-26.65,-30.83,0,*5D
1487891112.52,29168,9.5,72076.8,-3.39,-26.77,-30.83,0,*51
1487891113.79,29169,9.5,72074.8,-3.37,-26.65,-30.55,0,*56
1487891115.03,29170,9.5,72066.8,-3.39,-26.55,-30.67,0,*52
1487891116.24,29171,9.5,72060.8,-3.39,-26.61,-30.67,0,*54
1487891117.5,29172,9.5,72070.3,-3.37,-26.45,-30.39,0,*54
1487891118.75,29173,9.5,72066.0,-3.39,-26.13,-30.05,0,*57
1487891120.01,29174,9.5,72062.5,-3.37,-26.23,-30.17,0,*5E
1487891121.28,29175,9.5,72066.0,-3.39,-26.29,-30.17,0,*5B
1487891122.49,29176,9.5,72094.0,-3.39,-26.39,-30.33,0,*5F
1487891123.72,29177,9.5,72090.0,-3.39,-26.61,-30.51,0,*57
1487891124.94,29178,9.5,72088.0,-3.39,-26.65,-30.67,0,*59
1487891126.18,29179,9.5,72086.0,-3.39,-26.65,-30.55,0,*59
1487891127.43,29180,9.5,72068.0,-3.39,-26.55,-30.39,0,*56
1487891128.64,29181,9.5,72060.3,-3.39,-26.39,-30.23,0,*56
1487891129.9,29182,9.5,72064.8,-3.37,-26.29,-30.23,0,*5A
1487891131.13,29183,9.5,72064.5,-3.39,-26.61,-30.51,0,*5C
1487891132.38,29184,9.5,72072.5,-3.37,-26.65,-30.67,0,*54
1487891133.6,29185,9.5,72086.5,-3.39,-26.65,-30.67,0,*5B
1487891134.86,29186,9.5,72084.3,-3.37,-26.61,-30.39,0,*59
1487891136.1,29187,9.5,72052.3,-3.39,-26.39,-30.17,0,*57
1487891137.31,29188,9.5,72052.5,-3.39,-26.07,-29.83,0,*50
1487891138.57,29189,9.5,72060.0,-3.37,-26.13,-29.83,0,*5A
1487891139.84,29190,9.5,72066.3,-3.37,-26.65,-30.39,0,*5A
1487891141.11,29191,9.5,72068.8,-3.37,-26.77,-30.67,0,*53
1487891142.38,29192,9.5,72072.5,-3.39,-26.93,-30.73,0,*51
1487891143.67,29193,9.5,72076.5,-3.37,-26.93,-30.73,0,*5E
1487891144.89,29194,9.5,72080.8,-3.39,-27.07,-30.83,0,*54
1487891146.14,29195,9.5,72078.3,-3.35,-26.93,-30.67,0,*5F
1487891147.4,29196,9.5,72068.0,-3.39,-26.77,-30.51,0,*5F
1487891148.62,29197,9.5,72072.0,-3.39,-27.07,-30.83,0,*57
1487891149.86,29198,9.5,72072.8,-3.39,-27.07,-30.89,0,*52
1487891151.12,29199,9.5,72076.3,-3.37,-27.13,-30.95,0,*55
1487891152.36,29200,9.5,72076.0,-3.39,-27.13,-30.89,0,*55
1487891153.6,29201,9.5,72086.5,-3.37,-27.07,-30.83,0,*55
1487891154.85,29202,9.5,72084.5,-3.39,-26.81,-30.67,0,*5D
1487891156.12,29203,9.5,72082.0,-3.37,-26.65,-30.39,0,*53
1487891157.33,29204,9.5,72076.3,-3.39,-26.61,-30.33,0,*54
1487891158.56,29205,9.5,72062.8,-3.39,-26.55,-30.23,0,*53
1487891159.81,29206,9.5,72054.5,-3.37,-26.39,-30.05,0,*50
1487891161.08,29207,9.5,72056.0,-3.37,-26.65,-30.39,0,*57
1487891162.37,29208,9.5,72064.8,-3.37,-26.81,-30.55,0,*58
1487891163.63,29209,9.5,72056.0,-3.37,-26.39,-30.01,0,*5B
1487891164.92,29210,9.5,72062.3,-3.37,-26.55,-30.17,0,*5E
1487891166.18,29211,9.5,72064.3,-3.37,-26.55,-30.23,0,*58
1487891167.42,29212,9.5,72058.0,-3.37,-26.61,-30.23,0,*5C
1487891168.65,29213,9.5,72066.0,-3.35,-26.71,-30.45,0,*5E
1487891169.89,29214,9.5,72058.0,-3.35,-26.71,-30.45,0,*59
1487891171.16,29215,9.5,72046.0,-3.35,-26.77,-30.51,0,*5B
1487891172.38,29216,9.5,72052.0,-3.35,-27.07,-30.83,0,*51
1487891173.65,29217,9.5,72050.0,-3.35,-27.35,-30.89,0,*5B
1487891174.89,29218,9.5,72074.5,-3.35,-27.39,-31.17,0,*5E
1487891176.11,29219,9.5,72078.0,-3.35,-27.03,-30.83,0,*5A
1487891177.33,29220,9.5,72070.3,-3.39,-27.07,-30.83,0,*58
1487891178.6,29221,9.5,72072.5,-3.37,-27.23,-30.83,0,*51
1487891179.88,29222,9.5,72094.0,-3.37,-27.39,-31.11,0,*53
1487891181.17,29223,9.5,72058.8,-3.37,-26.93,-30.51,0,*56
1487891182.41,29224,9.5,72076.0,-3.35,-26.71,-30.33,0,*5B
1487891183.69,29225,9.5,72072.0,-3.37,-26.97,-30.67,0,*51
1487891184.93,29226,9.5,72100.8,-3.35,-26.61,-30.17,0,*5E
1487891186.16,29227,9.5,72114.5,-3.35,-26.23,-29.73,0,*53
1487891187.4,29228,9.5,72092.3,-3.35,-26.17,-29.57,0,*5D
1487891188.61,29229,9.5,72106.0,-3.35,-26.39,-29.95,0,*5E
1487891189.83,29230,9.5,72088.0,-3.35,-26.39,-29.95,0,*56
1487891191.06,29231,9.5,72066.3,-3.33,-26.39,-29.95,0,*51
1487891192.32,29232,9.5,72026.8,-3.33,-26.71,-30.27,0,*5F
1487891193.59,29233,9.5,72022.5,-3.33,-27.07,-30.61,0,*5C
1487891194.86,29234,9.5,72038.5,-3.33,-27.03,-30.61,0,*5F
1487891196.16,29235,9.5,72042.0,-3.33,-27.35,-30.77,0,*5C
1487891197.39,29236,9.5,72042.0,-3.33,-27.55,-31.01,0,*59
1487891198.63,29237,9.5,72038.3,-3.35,-27.39,-31.01,0,*54
1487891199.86,29238,9.5,72016.8,-3.33,-27.51,-31.05,0,*57
1487891201.13,29239,9.5,71992.5,-3.35,-27.39,-30.89,0,*5B
1487891202.37,29240,9.5,71996.3,-3.33,-27.55,-31.05,0,*5C
1487891203.64,29241,9.5,71982.8,-3.35,-27.39,-30.89,0,*54
1487891204.91,29242,9.5,72004.8,-3.35,-27.35,-30.89,0,*5B
1487891206.19,29243,9.5,72022.5,-3.33,-27.19,-30.61,0,*54
1487891207.45,29244,9.5,72046.5,-3.35,-27.19,-30.61,0,*55
1487891208.7,29245,9.5,72032.0,-3.35,-27.23,-30.67,0,*5B
1487891209.92,29246,9.5,72030.0,-3.35,-27.51,-30.83,0,*57
1487891211.19,29247,9.5,72034.5,-3.35,-27.35,-30.77,0,*5F
1487891212.43,29248,9.5,72028.3,-3.35,-27.51,-30.89,0,*53
1487891213.65,29249,9.5,72030.5,-3.35,-27.03,-30.33,0,*54
1487891214.89,29250,9.5,72026.0,-3.35,-26.93,-30.33,0,*54
1487891216.13,29251,9.5,72024.8,-3.35,-26.71,-30.11,0,*59
1487891217.39,29252,9.5,72040.3,-3.33,-26.93,-30.33,0,*50
1487891218.61,29253,9.5,72042.8,-3.35,-27.03,-30.45,0,*5E
1487891219.85,29254,9.5,72024.0,-3.35,-27.03,-30.51,0,*5C
1487891221.08,29255,9.5,72038.3,-3.35,-27.19,-30.67,0,*53
1487891222.35,29256,9.5,72036.0,-3.35,-27.19,-30.61,0,*56
1487891223.62,29257,9.5,72042.8,-3.33,-26.93,-30.33,0,*55
1487891224.88,29258,9.5,72042.8,-3.33,-27.03,-30.61,0,*55
1487891226.15,29259,9.5,72054.0,-3.33,-27.19,-30.67,0,*59
1487891227.43,29260,9.5,72064.0,-3.33,-27.19,-30.51,0,*56
1487891228.69,29261,9.5,72060.5,-3.35,-27.19,-30.61,0,*52
1487891229.94,29262,9.5,72064.0,-3.35,-27.07,-30.61,0,*5E
1487891231.18,29263,9.5,72074.8,-3.35,-27.51,-30.89,0,*5A
1487891232.43,29264,9.5,72086.3,-3.35,-27.39,-30.83,0,*59
1487891233.67,29265,9.5,72082.5,-3.35,-27.61,-31.05,0,*5A
1487891234.88,29266,9.5,72078.5,-3.35,-27.55,-31.05,0,*5E
1487891236.13,29267,9.5,72074.5,-3.35,-27.61,-31.17,0,*5B
1487891237.4,29268,9.5,72084.5,-3.33,-27.61,-31.05,0,*51
1487891238.62,29269,9.5,72080.5,-3.35,-27.71,-31.05,0,*57
1487891239.86,29270,9.5,72084.3,-3.35,-27.61,-31.17,0,*5D
1487891241.11,29271,9.5,72078.8,-3.35,-27.71,-31.23,0,*5A
1487891242.35,29272,9.5,72082.3,-3.35,-27.71,-31.23,0,*59
1487891243.56,29273,9.5,72074.3,-3.35,-27.71,-31.17,0,*5F
1487891244.78,29274,9.5,72056.5,-3.35,-27.71,-31.05,0,*5B
1487891246.02,29275,9.5,72058.3,-3.35,-26.93,-30.45,0,*52
1487891247.26,29276,9.5,72060.3,-3.37,-27.67,-31.05,0,*5C
1487891248.52,29277,9.5,72062.8,-3.37,-27.77,-31.23,0,*58
1487891249.78,29278,9.5,72050.3,-3.37,-27.55,-30.95,0,*5B
1487891251.05,29279,9.5,72046.0,-3.37,-27.61,-31.05,0,*55
1487891252.29,29280,9.5,72038.8,-3.37,-27.67,-31.05,0,*55
1487891253.53,29281,9.5,72030.3,-3.37,-27.67,-31.05,0,*54
1487891254.79,29282,9.5,72038.8,-3.37,-27.83,-31.29,0,*53
1487891256.05,29283,9.5,72058.5,-3.37,-27.77,-31.11,0,*52
1487891257.29,29284,9.5,72050.8,-3.39,-27.77,-31.11,0,*5B
1487891258.55,29285,9.5,72066.3,-3.37,-27.67,-31.11,0,*55
1487891259.78,29286,9.5,72056.5,-3.39,-27.29,-30.67,0,*52
1487891261.04,29287,9.5,72000.8,-3.37,-27.39,-30.83,0,*56
1487891262.32,29288,9.5,72016.3,-3.37,-26.97,-30.33,0,*57
1487891263.56,29289,9.5,72014.8,-3.37,-27.07,-30.33,0,*5E
1487891264.84,29290,9.5,72030.5,-3.37,-27.23,-30.55,0,*50
1487891266.1,29291,9.5,72030.8,-3.37,-27.13,-30.39,0,*58
1487891267.37,29292,9.5,72036.3,-3.37,-27.29,-30.55,0,*58
1487891268.66,29293,9.5,72034.0,-3.37,-27.45,-30.73,0,*57
1487891269.96,29294,9.5,72040.8,-3.37,-27.45,-30.73,0,*50
1487891271.23,29295,9.5,72042.3,-3.35,-27.61,-30.89,0,*50
1487891272.48,29296,9.5,72012.0,-3.35,-27.77,-31.23,0,*55
1487891273.74,29297,9.5,72016.5,-3.33,-27.89,-31.23,0,*53
1487891274.98,29298,9.5,72028.5,-3.35,-27.89,-31.23,0,*5A
1487891276.22,29299,9.5,72036.3,-3.35,-28.09,-31.33,0,*5D
1487891277.48,29300,9.5,72036.8,-3.35,-28.09,-31.39,0,*56
1487891278.77,29301,9.5,72030.5,-3.37,-27.99,-31.39,0,*53
1487891280.06,29302,9.5,72052.5,-3.37,-28.09,-31.39,0,*56
1487891281.29,29303,9.5,72048.5,-3.39,-27.93,-31.23,0,*5E
1487891282.58,29304,9.5,72060.0,-3.37,-27.45,-30.55,0,*5C
1487891283.82,29305,9.5,71992.5,-3.37,-27.67,-31.05,0,*59
1487891285.08,29306,9.5,71994.0,-3.37,-27.23,-30.23,0,*5F
1487891286.38,29307,9.5,72010.5,-3.37,-26.81,-30.17,0,*50
1487891287.61,29308,9.5,72028.8,-3.35,-27.23,-30.27,0,*57
1487891288.87,29309,9.5,72044.5,-3.37,-27.23,-30.23,0,*50
1487891290.11,29310,9.5,72046.3,-3.37,-27.13,-30.23,0,*5B
1487891291.35,29311,9.5,72014.5,-3.35,-26.77,-30.11,0,*5A
1487891292.61,29312,9.5,72002.3,-3.33,-26.77,-29.79,0,*59
1487891293.84,29313,9.5,71972.0,-3.29,-27.03,-30.27,0,*52
1487891295.09,29314,9.5,71992.5,-3.35,-27.61,-31.01,0,*59
1487891296.3,29315,9.5,71986.5,-3.35,-27.77,-31.17,0,*58
1487891297.57,29316,9.5,71938.3,-3.35,-27.39,-30.61,0,*51
1487891298.84,29317,9.5,71954.3,-3.33,-27.71,-30.89,0,*5C
1487891300.08,29318,9.5,71974.8,-3.33,-27.77,-31.05,0,*50
1487891301.32,29319,9.5,71992.8,-3.35,-27.39,-30.67,0,*58
1487891302.54,29320,9.5,72000.8,-3.35,-27.55,-30.83,0,*52
1487891303.8,29321,9.5,71970.5,-3.33,-27.19,-30.33,0,*56
1487891305.08,29322,9.5,71986.8,-3.33,-27.51,-30.77,0,*59
1487891306.32,29323,9.5,71992.3,-3.35,-27.55,-30.77,0,*5A
1487891307.59,29324,9.5,71982.0,-3.33,-27.51,-30.61,0,*58
1487891308.85,29325,9.5,71954.8,-3.33,-27.19,-30.45,0,*53
1487891310.12,29326,9.5,71992.5,-3.35,-27.61,-30.89,0,*59
1487891311.37,29327,9.5,72008.5,-3.35,-27.61,-31.01,0,*59
1487891312.6,29328,9.5,72020.0,-3.33,-27.71,-31.01,0,*51